Wind_Speed
38 37 41 36 34 36 38 39 39 36 33 31 32 34 35 32 25 27 30 34 38 40
37 38 34 34 34 34 34 33 34 35 34 34 35 33 29 27 22 28 35 37 39 37
36 33 33 28 30 34 36 37 36 36 36 36 35 32 30 37 27 37 44 41 36 35
33 37 37 36 40 35 39 43 43 41 39 35 35 35 37 30 28 30 34 34 32 32
39 36 33 34 40 43 38 33 39 41 37 39 36 37 31 26 23 26 31 32 29 29
39 39 40 41 46 40 35 39 41 35 41 42 38 36 29 29 28 27 30 28 26 24
39 43 43 42 42 40 35 40 40 40 40 38 41 38 33 29 24 26 25 24 23 22
40 39 40 41 40 36 36 39 38 36 35 37 38 35 32 27 25 24 20 18 18 18
33 35 38 37 34 34 36 35 34 36 38 39 38 32 29 25 23 23 20 18 16 16
31 32 33 32 30 33 33 33 35 36 36 32 30 25 22 20 21 19 18 19 21 21
32 29 27 29 28 30 31 31 29 27 26 23 19 18 17 16 16 16 16 19 23 21
25 24 24 23 24 22 22 20 20 20 18 16 15 16 18 19 20 21 20 20 18 16
23 23 24 23 22 21 21 21 19 18 15 16 20 18 17 18 23 25 22 17 13 10
17 18 19 21 21 23 25 24 23 22 19 19 18 16 15 18 22 22 18 14 10 6
Wind_Direction
219 221 227 231 232 237 241 243 246 251 249 256 267 269 263 256 256 264 261 256 253 249
218 219 223 227 231 239 244 246 247 248 251 258 266 266 260 241 264 278 269 276 264 252
216 220 225 230 236 242 247 250 251 250 254 261 263 265 263 248 256 256 257 256 253 251
214 220 224 229 235 240 252 247 248 254 256 261 264 260 261 245 246 251 246 248 253 246
214 218 220 221 224 234 237 236 244 247 253 254 253 251 229 238 251 256 251 255 245 232
212 215 219 220 230 236 235 244 251 246 250 249 242 243 238 252 257 254 253 242 229 227
212 216 221 226 232 239 236 240 241 241 240 239 243 239 241 242 249 246 238 234 229 224
216 218 221 226 230 231 232 234 234 235 233 233 238 239 235 236 238 232 219 215 211 207
214 215 219 224 225 225 227 229 230 229 230 229 234 235 235 239 227 209 203 193 190 186
210 211 215 218 219 221 219 220 223 227 227 231 232 236 227 213 203 194 191 189 179 166
204 202 207 212 208 209 211 210 211 217 218 217 214 197 189 185 182 177 177 178 175 171
186 182 189 198 202 206 208 201 194 194 188 186 171 173 178 175 165 156 153 157 158 162
189 189 186 190 187 179 177 164 152 141 147 157 152 168 170 171 160 147 142 142 143 153
172 177 182 170 165 159 146 138 129 123 121 128 138 145 155 160 156 152 146 142 137 131
Height
778 781 787 788 792 795 798 799 803 806 807 810 814 816 818 819 822 824 825 823 823 825
771 776 780 783 787 791 793 794 797 798 800 802 807 809 810 812 811 815 817 816 819 820
763 769 774 779 782 785 787 789 788 789 793 798 799 801 803 802 800 803 807 811 813 813
755 759 764 768 771 775 778 776 781 785 788 788 789 790 792 787 794 795 801 803 804 804
745 749 755 758 759 755 764 768 771 773 777 777 779 783 783 786 788 790 793 793 796 797
735 740 742 747 750 754 757 760 762 765 768 769 771 775 778 781 783 783 785 787 790 793
725 727 731 736 740 743 747 752 756 758 760 762 763 766 768 773 775 778 779 781 784 787
711 718 723 726 730 735 739 742 748 752 753 755 756 758 762 765 768 770 774 778 781 785
704 709 713 719 725 729 731 735 739 743 744 747 748 751 758 759 761 767 770 775 780 784
697 701 707 712 718 721 724 728 731 734 736 740 743 747 752 755 760 763 768 773 777 781
690 695 702 706 710 714 718 722 725 729 733 737 742 746 750 754 759 764 769 773 777 780
688 693 698 703 707 711 716 720 725 728 732 736 740 744 748 752 757 762 768 773 777 781
687 692 697 700 705 710 714 720 725 729 734 738 741 747 749 752 757 762 767 773 777 781
688 692 697 699 706 710 713 718 724 730 737 741 745 748 751 755 758 763 768 773 778 782